Regional Weather Roundup
Issued by NWS

Home | Current Version | Previous Version | Text Only | Print | Product List | Glossary On
Versions: 1 2 3 4 5 6 7 8 9 10 11 12 13 14 15 16 17 18 19 20 21 22 23 24 25 26 27 28 29 30 31 32 33 34 35 36 37 38 39 40 41 42 43 44 45 46 47 48 49 50
000
ASCA42 TJSJ 301911
RWRPR
PUERTO RICO/U.S. VIRGIN ISLANDS HOURLY WEATHER ROUNDUP
NATIONAL WEATHER SERVICE SAN JUAN PR
300 PM AST TUE SEP 30 2014

PRZ001-004-302000-
PUERTO RICO

CITY           SKY/WX    TMP DP  RH WIND       PRES   REMARKS
SAN JUAN LMM   MOSUNNY   91  73  55 S5        29.93F HX 100
MAYAGUEZ       PTSUNNY   90  72  55 W7        29.96S HX  96
AGUADILLA      SUNNY     86  75  70 N8        29.96F HX  95
CEIBA          SUNNY     88  77  70 S8        29.97F HX 100
$$

PRZ006-007-302000-
U.S. VIRGIN ISLANDS

CITY           SKY/WX    TMP DP  RH WIND       PRES   REMARKS
CHRISTIANSTED  SUNNY     88  75  66 SE12      29.96F HX  97
$$

HOURLY WEATHER ROUNDUP FOR THE NEWS MEDIA

CITY           SKY/WX    TMP DP  RH WIND       PRES   REMARKS
MIAMI          PTSUNNY   83  74  74 NW8       29.85S
ORLANDO        TSTM      81  73  76 W15       29.82F
NEW YORK       CLOUDY    66  61  84 E8        29.95F
NEWARK         PTSUNNY   68  59  73 E6        29.94S
CHICAGO        PTSUNNY   56  45  66 NE9       30.03F
HARTFORD       LGT RAIN  58  57  97 N8        29.96F
BOSTON         RAIN      57  55  93 N13       30.00F
DALLAS         PTSUNNY   89  65  44 SE9       29.83F HX  91
PHILADELPHIA   MOSUNNY   78  55  44 S6        29.89F


USA.gov is the U.S. government's official web portal to all federal, state and local government web resources and services.